Location: Krakow
(50.0830°N, 19.9170°E)
Time: 11:04:13
(UTC+01:00)

Tiros 1 despin weight - All Passes

Search period start: 05 December 2023 00:00
Search period end: 15 December 2023 00:00
Orbit: 583 x 628 km, 48.2° (Epoch: 28 November)

Date Brightness Start Highest point End Pass type
(mag) Time Alt. Az. Time Alt. Az. Time Alt. Az.
05 Dec - 16:47:54 10° S 16:50:17 15° SE 16:52:40 10° ESE visible
05 Dec - 18:26:38 10° SW 18:30:46 43° SSE 18:34:54 10° E visible
05 Dec - 20:07:26 10° W 20:11:46 70° S 20:16:06 10° E visible
05 Dec - 21:48:36 10° W 21:52:49 50° SSW 21:57:03 10° ESE night (unlit)
05 Dec - 23:30:22 10° W 23:33:26 19° SW 23:36:30 10° S night (unlit)
06 Dec - 16:58:49 10° SSW 17:02:13 22° SSE 17:05:37 10° E visible
06 Dec - 18:38:40 10° WSW 18:42:55 55° SSE 18:47:11 10° E visible
06 Dec - 20:19:40 10° W 20:24:00 68° S 20:28:20 10° ESE visible
06 Dec - 22:00:55 10° W 22:04:57 37° SSW 22:08:59 10° SE night (unlit)
06 Dec - 23:43:48 10° WSW 23:45:20 12° SW 23:46:52 10° SSW night (unlit)
07 Dec - 17:10:20 10° SW 17:14:14 32° SSE 17:18:08 10° E visible
07 Dec - 18:50:48 10° WSW 18:55:07 65° S 18:59:26 10° E visible
07 Dec - 20:31:55 10° W 20:36:13 60° SSW 20:40:30 10° ESE visible
07 Dec - 22:13:21 10° W 22:17:00 26° SSW 22:20:39 10° SSE night (unlit)
08 Dec - 15:43:13 10° S 15:45:48 15° SE 15:48:23 10° ESE daylight
08 Dec - 17:22:09 10° SW 17:26:19 44° SSE 17:30:28 10° E visible
08 Dec - 19:02:59 10° W 19:07:19 70° S 19:11:40 10° E visible
08 Dec - 20:44:10 10° W 20:48:22 48° SSW 20:52:34 10° SE night (unlit)
08 Dec - 22:26:02 10° W 22:28:57 18° SW 22:31:52 10° S night (unlit)
09 Dec - 15:54:13 10° SSW 15:57:43 24° SSE 16:01:12 10° E daylight
09 Dec - 17:34:10 10° WSW 17:38:27 57° SSE 17:42:43 10° E visible
09 Dec - 19:15:12 10° W 19:19:32 67° S 19:23:51 10° ESE visible
09 Dec - 20:56:28 10° W 21:00:27 36° SSW 21:04:27 10° SE night (unlit)
09 Dec - 22:39:44 10° WSW 22:40:48 11° SW 22:41:53 10° SSW night (unlit)
10 Dec - 16:05:46 10° SW 16:09:43 34° SSE 16:13:40 10° E daylight
10 Dec - 17:46:17 10° WSW 17:50:37 66° S 17:54:56 10° E visible
10 Dec - 19:27:25 10° W 19:31:42 59° SSW 19:35:59 10° ESE visible
10 Dec - 21:08:53 10° W 21:12:27 25° SSW 21:16:02 10° SSE night (unlit)
11 Dec - 14:38:28 10° S 14:41:14 16° SE 14:43:58 10° ESE daylight
11 Dec - 16:17:34 10° SW 16:21:46 46° SSE 16:25:57 10° E visible
11 Dec - 17:58:27 10° W 18:02:48 70° S 18:07:08 10° E visible
11 Dec - 19:39:38 10° W 19:43:49 47° SSW 19:48:00 10° SE visible
11 Dec - 21:21:35 10° WSW 21:24:22 17° SW 21:27:08 10° S night (unlit)
12 Dec - 14:49:32 10° SSW 14:53:07 25° SSE 14:56:42 10° E daylight
12 Dec - 16:29:34 10° WSW 16:33:53 58° SSE 16:38:09 10° E visible
12 Dec - 18:10:38 10° W 18:14:57 67° S 18:19:17 10° ESE visible
12 Dec - 19:51:55 10° W 19:55:52 34° SSW 19:59:49 10° SE visible
13 Dec - 13:23:46 10° SSE 13:24:45 11° SE 13:25:44 10° ESE daylight
13 Dec - 15:01:05 10° SW 15:05:06 35° SSE 15:09:05 10° E daylight
13 Dec - 16:41:39 10° WSW 16:46:01 67° S 16:50:20 10° E visible
13 Dec - 18:22:48 10° W 18:27:06 57° SSW 18:31:22 10° ESE visible
13 Dec - 20:04:19 10° W 20:07:50 24° SSW 20:11:19 10° SSE visible
14 Dec - 13:33:37 10° S 13:36:33 17° SE 13:39:28 10° E daylight
14 Dec - 15:12:53 10° SW 15:17:08 48° SSE 15:21:20 10° E daylight
14 Dec - 16:53:48 10° W 16:58:10 70° S 17:02:29 10° E visible
14 Dec - 18:35:01 10° W 18:39:10 45° SSW 18:43:19 10° SE visible
14 Dec - 20:17:03 10° WSW 20:19:41 16° SW 20:22:19 10° S visible
